Location: Pf�ffikon
(47.2015°N, 8.7809°E)
Time: 21:11:57
(UTC+00:00)

Cosmos 2221 - Pass Details

Date: 07 June 2020
Orbit: 594 x 615 km, 82.5° (Epoch: 09 July)

Event Time Altitude Azimuth Distance (km) Brightness Sun altitude
Rises 00:29:29 0° 359° (N) 2,882 7.4 -18.5°
Reaches altitude 10° 00:31:55 10° 10° (N) 1,976 6.4 -18.4°
Maximum altitude 00:35:49 31° 73° (ENE) 1,093 4.1 -18.2°
Enters shadow 00:39:28 11° 134° (SE) 1,894 4.8 -18.0°
